Regional Weather Roundup
Issued by NWS Bismarck, ND

Home | Current Version | Previous Version | Text Only | Print | Product List | Glossary On
Versions: 1 2 3 4 5 6 7 8 9 10 11 12 13 14 15 16 17 18 19 20 21 22 23 24 25 26 27 28 29 30 31 32 33 34 35 36 37 38 39 40 41 42 43 44 45 46 47 48 49 50
000
ASUS43 KBIS 281810
RWRBIS

NWR BROADCAST TEXT
NATIONAL WEATHER SERVICE BISMARCK ND
100 PM CDT SAT MAY 28 2016

NOTE: "FAIR" INDICATES FEW OR NO CLOUDS BELOW 12,000 FEET WITH NO
SIGNIFICANT WEATHER AND/OR OBSTRUCTIONS TO VISIBILITY.


CITY           SKY/WX    TMP DP  RH WIND       PRES   REMARKS
WILLISTON      PTSUNNY   66  53  63 NE8       29.89S
MINOT          CLOUDY    64  53  67 CALM      29.90S
MINOT AFB      CLOUDY    61  54  77 NE5       29.89S
BISMARCK       PTSUNNY   68  54  60 NE3       29.87F
DICKINSON      PTSUNNY   69  45  41 S5        29.85F
GARRISON         N/A     62  54  74 E7        29.90S
HETTINGER ARPT PTSUNNY   73  48  41 VRB6      29.89S
JAMESTOWN      CLOUDY    65  58  78 N8        29.85F
BEACH          MOCLDY    66  46  48 W17G25    29.90S
CARRINGTON     MOCLDY    63  54  72 N8        29.90S
HAZEN          MOCLDY    64  54  68 NE5       29.91S
LINTON         FAIR      68  59  73 N8          N/A
MANDAN         FAIR      66  55  68 NE3       29.89S
OAKES            N/A    N/A N/A N/A MISG        N/A
RUGBY          CLOUDY    59  55  88 N5        29.90S
STANLEY        CLOUDY    57  57 100 E6        29.93S
WATFORD CITY   FAIR      66  52  59 SE7       29.88F
$$

CITY           SKY/WX    TMP DP  RH WIND       PRES   REMARKS
GRAND FORKS    CLOUDY    70  54  56 N8        29.82F
GRAND FORKS AF CLOUDY    72  55  54 NE6       29.83F
DEVILS LAKE    CLOUDY    62  56  80 N6        29.89S
FARGO          MOSUNNY   71  56  58 N14       29.79F
CAVALIER       FAIR      68  59  73 NW9       29.86F
GRAFTON        MOCLDY    72  55  56 N5        29.86S
GWINNER        MOCLDY    70  57  64 N10       29.83S
LANGDON        MOCLDY    66  61  82 NE9       29.89S
ROLLA          CLOUDY    55  55 100 N8        29.92F
WALHALLA       FAIR      64  64 100 N8        29.88S
$$

CITY           SKY/WX    TMP DP  RH WIND       PRES   REMARKS
ABERDEEN       CLOUDY    65  58  78 NE8       29.83S
MOBRIDGE       CLOUDY    72  50  45 N6        29.84S
BUFFALO          N/A     69  47  45 VRB3      29.84F
RAPID CITY     MOSUNNY   70  47  43 N6        29.91S
GLASGOW        MOSUNNY   59  51  75 NW12      29.91S
SIDNEY         PTSUNNY   66  53  63 NW7       29.86F
WOLF POINT     CLOUDY    61  55  81 W8        29.89S
GLENDIVE       PTSUNNY   64  54  68 W16G22    29.92S
MILES CITY     MOSUNNY   65  48  54 W9        29.93F
BAKER          PTSUNNY   66  51  58 W18G24    29.92R
$$

CITY           SKY/WX    TMP DP  RH WIND       PRES   REMARKS
BILLINGS       PTSUNNY   59  42  53 W7        29.99S
GREAT FALLS    MOSUNNY   57  25  29 W17G25    29.98S
REGINA         CLOUDY    59  50  72 SE10      29.92S
ESTEVAN        CLOUDY    57  54  88 E12       29.92S
$$




USA.gov is the U.S. government's official web portal to all federal, state and local government web resources and services.